Weather in Sverdlovskiy

Russia / Kemerovo Oblast     54°35′00″N   86°08′24″E
temp.,
°C
wind,
m/s
gust,
m/s
humid.,
%
clouds,
%
prec.,
mm/h
press.,
hPa
HPBL,
m
9 december, thu
thu901:00−24ssw229997 0.0 104142
04:00−21ssw2696100 0.0 1042153
07:00−22ssw369599 0.0 1044126
10:00−21ssw3896100 0.1 1046247
13:00−19sw4790100 0.1 1047352
16:00−18ssw4889100 0.0 1048430
19:00−18ssw4989100 0.0 1049403
22:00−18ssw41089100 0.0 1049410
10 december, fri
fri1001:00−19s379291 0.0 1049155
04:00−21sse369485 0.0 104885
07:00−18s4991100 0.0 1047278
10:00−16s51289100 0.0 1046488
13:00−13ssw51292100 0.7 1045549
16:00−12ssw51094100 0.6 1044547
19:00−12ssw41094100 1.1 1045457
22:00−12s489499 0.3 1045314
11 december, sat
sat1101:00−11s489495 0.5 1044330
04:00−11sse4892100 0.3 1043261
07:00−11sse5987100 0.3 1041198
10:00−11se4885100 0.0 1039152
13:00−8sse4881100 0.0 1036222
16:00−7sse388397 0.0 1033153
19:00−10sse4980100 0.0 1031140
22:00−10sse3683100 0.0 102989
12 december, sun
sun1201:00−9s3779100 0.0 1026120
04:00−9sw4877100 0.0 1024162
07:00−11ssw3686100 0.0 102394
10:00−12ssw2491100 0.0 102349
13:00−10wsw3690100 0.0 1022346
16:00−10wnw2494100 0.1 1023373
19:00−13nnw3695100 0.2 1024174
22:00−18nw259971 0.0 102779
13 december, mon
mon1301:00−23w1210094 0.1 103021
04:00−24w1110087 0.1 10319
07:00−26sse0010095 0.1 10339
10:00−21s1298100 0.1 103278
13:00−18sw3492100 0.1 1031328
16:00−17sw3595100 0.4 1031410
19:00−18sw3697100 0.8 1031338
22:00−18ssw2597100 0.3 1030312